Location: La Silve
(44.2414°N, 5.8889°E)
Time: 20:56:50
(UTC+00:00)

X-37B - Visible Passes

Search period start: 12 June 2021 00:00
Search period end: 22 June 2021 00:00
Orbit: 386 x 389 km, 45.0° (Epoch: 10 June)

Date Brightness Start Highest point End Pass type
(mag) Time Alt. Az. Time Alt. Az. Time Alt. Az.
12 Jun 1.9 01:48:03 26° SSE 01:48:04 26° SSE 01:50:47 10° E visible
13 Jun 0.6 02:24:15 21° WSW 02:26:08 64° SSE 02:29:17 10° E visible
14 Jun 1.2 01:28:10 40° SE 01:28:10 40° SE 01:30:52 10° E visible
14 Jun 0.7 03:01:13 10° W 03:04:23 78° N 03:07:34 10° E visible
15 Jun 3.4 00:32:04 12° E 00:32:04 12° E 00:32:20 10° E visible
15 Jun 0.5 02:04:20 25° WSW 02:06:01 87° SSE 02:09:11 10° E visible
16 Jun 1.0 01:08:13 51° ESE 01:08:13 51° ESE 01:10:49 10° E visible
16 Jun 0.8 02:41:09 10° W 02:44:20 74° N 02:47:30 10° E visible
17 Jun 3.4 00:12:08 12° E 00:12:08 12° E 00:12:24 10° E visible
17 Jun 0.6 01:44:24 28° W 01:45:56 78° N 01:49:06 10° E visible
18 Jun 1.3 00:48:20 48° E 00:48:20 48° E 00:50:44 10° E visible
18 Jun 0.6 02:21:04 10° W 02:24:15 80° N 02:27:27 10° E visible
18 Jun 3.6 23:52:21 10° E 23:52:21 10° E 23:52:21 10° E visible
19 Jun 0.7 01:24:37 34° WNW 01:25:52 74° N 01:29:02 10° E visible
19 Jun 0.6 02:59:22 10° W 03:02:30 60° SSW 03:05:38 10° ESE visible
20 Jun 2.0 00:28:46 32° ENE 00:28:46 32° ENE 00:30:39 10° E visible
20 Jun 0.4 02:01:04 11° W 02:04:10 83° S 02:07:21 10° ESE visible
21 Jun 0.6 01:05:32 72° NW 01:05:47 80° N 01:08:59 10° E visible
21 Jun 1.0 02:39:20 10° W 02:42:19 38° SSW 02:45:18 10° SE visible
